Location: Detroit
(42.3310°N, 83.0460°W)
Time: 09:54:27
(UTC-05:00)

ISS - Pass Details

Date: 30 November 2021
Orbit: 413 x 422 km, 51.6° (Epoch: 24 January)

Event Time Altitude Azimuth Distance (km) Brightness Sun altitude
Rises 17:59:18 0° 299° (WNW) 2,384 0.7 -10.6°
Reaches altitude 10° 18:01:57 10° 321° (NW) 1,516 -0.7 -11.1°
Maximum altitude 18:04:16 17° 4° (N) 1,155 -1.8 -11.5°
Enters shadow 18:05:42 14° 34° (NE) 1,301 -1.7 -11.8°
